This is the latest recevied weather packets stored in our database for station/object KC3ELT-10. If no packets are shown the sender has not sent any weather packets the latest 10 day(s).
| Time | Temp. | Humidity | Pressure | Rain* | Wind** | Luminosity | Snow |
|---|---|---|---|---|---|---|---|
| 1778013179 | 25° C | 38% | 1001.7 hPa | 0 mm | 1.79 m/s, 242° | - | - |
| 1778012879 | 25.56° C | 39% | 1001.8 hPa | 0 mm | 2.68 m/s, 219° | - | - |
| 1778012579 | 25° C | 39% | 1001.8 hPa | 0 mm | 1.79 m/s, 262° | - | - |
| 1778012279 | 25° C | 38% | 1001.8 hPa | 0 mm | 2.68 m/s, 205° | - | - |
| 1778011979 | 25° C | 37% | 1002 hPa | 0 mm | 3.13 m/s, 218° | - | - |
| 1778011679 | 25° C | 37% | 1002 hPa | 0 mm | 1.34 m/s, 188° | - | - |
| 1778011379 | 25° C | 36% | 1002 hPa | 0 mm | 0.89 m/s, 264° | - | - |
| 1778011079 | 25.56° C | 36% | 1001.7 hPa | 0 mm | 1.34 m/s, 204° | - | - |
| 1778010779 | 25.56° C | 36% | 1001.7 hPa | 0 mm | 4.47 m/s, 216° | - | - |
| 1778010479 | 25° C | 37% | 1001.7 hPa | 0 mm | 2.24 m/s, 271° | - | - |
| 1778010179 | 25° C | 36% | 1001.7 hPa | 0 mm | 4.47 m/s, 134° | - | - |
| 1778009879 | 25.56° C | 35% | 1001.7 hPa | 0 mm | 1.79 m/s, 231° | - | - |
| 1778009579 | 25.56° C | 37% | 1001.7 hPa | 0 mm | 2.68 m/s, 250° | - | - |
| 1778009279 | 25.56° C | 35% | 1002 hPa | 0 mm | 6.26 m/s, 203° | - | - |
| 1778008979 | 25.56° C | 35% | 1002 hPa | 0 mm | 1.79 m/s, 144° | - | - |
| 1778008679 | 25° C | 35% | 1002 hPa | 0 mm | 3.13 m/s, 252° | - | - |
| 1778008379 | 25° C | 36% | 1002.1 hPa | 0 mm | 2.68 m/s, 190° | - | - |
| 1778008079 | 25.56° C | 35% | 1002.1 hPa | 0 mm | 7.15 m/s, 176° | - | - |
| 1778007779 | 25.56° C | 34% | 1002.1 hPa | 0 mm | 4.47 m/s, 229° | - | - |
| 1778007479 | 25.56° C | 34% | 1002.3 hPa | 0 mm | 2.68 m/s, 202° | - | - |
| 1778007179 | 25.56° C | 34% | 1002.3 hPa | 0 mm | 2.24 m/s, 207° | - | - |
| 1778006879 | 26.11° C | 34% | 1002.3 hPa | 0 mm | 3.13 m/s, 185° | - | - |
| 1778006579 | 26.11° C | 34% | 1002.4 hPa | 0 mm | 3.13 m/s, 307° | - | - |
| 1778006279 | 25.56° C | 34% | 1002.4 hPa | 0 mm | 1.79 m/s, 210° | - | - |
| 1778005979 | 25.56° C | 34% | 1002.4 hPa | 0 mm | 1.34 m/s, 228° | - | - |
* Rain latest hour (hover to see other rain measurements)
** Current wind speed in m/s (hover to see current wind gust speed)